Year,Month,Day,Hour,Minute,Value (Times are PST for windspeed in km/hr)
2008,10,07,00,00,0.60
2008,10,07,00,01,3.50
2008,10,07,00,02,4.10
2008,10,07,00,03,7.20
2008,10,07,00,04,6.90
2008,10,07,00,05,16.50
2008,10,07,00,06,1.30
2008,10,07,00,07,7.10
2008,10,07,00,08,5.20
2008,10,07,00,09,7.30
2008,10,07,00,10,6.20
2008,10,07,00,11,7.60
2008,10,07,00,12,10.80
2008,10,07,00,13,5.60
2008,10,07,00,14,3.00
2008,10,07,00,15,6.50
2008,10,07,00,16,9.90
2008,10,07,00,17,2.20
2008,10,07,00,18,3.20
2008,10,07,00,19,10.20
2008,10,07,00,20,11.30
2008,10,07,00,21,4.80
2008,10,07,00,22,3.10
2008,10,07,00,23,1.00
2008,10,07,00,24,3.50
2008,10,07,00,25,1.10
2008,10,07,00,26,4.60
2008,10,07,00,27,7.30
2008,10,07,00,28,12.50
2008,10,07,00,29,13.40
2008,10,07,00,30,10.20
2008,10,07,00,31,4.40
2008,10,07,00,32,5.30
2008,10,07,00,33,4.90
2008,10,07,00,34,7.50
2008,10,07,00,35,7.80
2008,10,07,00,36,5.30
2008,10,07,00,37,8.30
2008,10,07,00,38,5.50
2008,10,07,00,39,1.20
2008,10,07,00,40,8.80
2008,10,07,00,41,5.10
2008,10,07,00,42,4.50
2008,10,07,00,43,13.80
2008,10,07,00,44,19.70
2008,10,07,00,45,19.30
2008,10,07,00,46,7.70
2008,10,07,00,47,2.50
2008,10,07,00,48,2.10
2008,10,07,00,49,10.50
2008,10,07,00,50,14.50
2008,10,07,00,51,9.80
2008,10,07,00,52,9.40
2008,10,07,00,53,13.30
2008,10,07,00,54,9.30
2008,10,07,00,55,16.50
2008,10,07,00,56,22.00
2008,10,07,00,57,10.40
2008,10,07,00,58,25.50
2008,10,07,00,59,13.60
2008,10,07,01,00,9.80
2008,10,07,01,01,7.20
2008,10,07,01,02,17.00
2008,10,07,01,03,14.60
2008,10,07,01,04,4.30
2008,10,07,01,05,6.40
2008,10,07,01,06,11.40
2008,10,07,01,07,5.20
2008,10,07,01,08,10.90
2008,10,07,01,09,23.90
2008,10,07,01,10,17.00
2008,10,07,01,11,7.80
2008,10,07,01,12,21.60
2008,10,07,01,13,14.60
2008,10,07,01,14,8.50
2008,10,07,01,15,17.40
2008,10,07,01,16,18.10
2008,10,07,01,17,10.80
2008,10,07,01,18,15.40
2008,10,07,01,19,5.00
2008,10,07,01,20,16.10
2008,10,07,01,21,6.20
2008,10,07,01,22,6.40
2008,10,07,01,23,7.40
2008,10,07,01,24,7.00
2008,10,07,01,25,12.60
2008,10,07,01,26,6.70
2008,10,07,01,27,11.70
2008,10,07,01,28,8.60
2008,10,07,01,29,8.90
2008,10,07,01,30,12.40
2008,10,07,01,31,14.30
2008,10,07,01,32,12.10
2008,10,07,01,33,23.00
2008,10,07,01,34,12.10
2008,10,07,01,35,14.60
2008,10,07,01,36,6.10
2008,10,07,01,37,9.60
2008,10,07,01,38,7.10
2008,10,07,01,39,19.00
2008,10,07,01,40,19.60
2008,10,07,01,41,8.00
2008,10,07,01,42,9.70
2008,10,07,01,43,23.70
2008,10,07,01,44,18.30
2008,10,07,01,45,21.80
2008,10,07,01,46,22.60
2008,10,07,01,47,13.70
2008,10,07,01,48,28.90
2008,10,07,01,49,15.90
2008,10,07,01,50,21.20
2008,10,07,01,51,12.00
2008,10,07,01,52,14.60
2008,10,07,01,53,23.30
2008,10,07,01,54,20.60
2008,10,07,01,55,11.70
2008,10,07,01,56,7.90
2008,10,07,01,57,6.40
2008,10,07,01,58,4.90
2008,10,07,01,59,13.70
2008,10,07,02,00,6.70
2008,10,07,02,01,14.00
2008,10,07,02,02,15.00
2008,10,07,02,03,9.30
2008,10,07,02,04,8.40
2008,10,07,02,05,9.60
2008,10,07,02,06,13.40
2008,10,07,02,07,13.30
2008,10,07,02,08,21.10
2008,10,07,02,09,19.60
2008,10,07,02,10,29.60
2008,10,07,02,11,23.30
2008,10,07,02,12,11.70
2008,10,07,02,13,10.90
2008,10,07,02,14,16.80
2008,10,07,02,15,13.50
2008,10,07,02,16,16.70
2008,10,07,02,17,14.10
2008,10,07,02,18,26.60
2008,10,07,02,19,16.90
2008,10,07,02,20,16.30
2008,10,07,02,21,17.10
2008,10,07,02,22,9.60
2008,10,07,02,23,14.40
2008,10,07,02,24,20.50
2008,10,07,02,25,15.20
2008,10,07,02,26,19.90
2008,10,07,02,27,21.70
2008,10,07,02,28,11.60
2008,10,07,02,29,17.50
2008,10,07,02,30,12.60
2008,10,07,02,31,15.40
2008,10,07,02,32,13.80
2008,10,07,02,33,10.70
2008,10,07,02,34,13.10
2008,10,07,02,35,9.00
2008,10,07,02,36,21.30
2008,10,07,02,37,22.80
2008,10,07,02,38,19.10
2008,10,07,02,39,15.10
2008,10,07,02,40,12.40
2008,10,07,02,41,7.20
2008,10,07,02,42,16.80
2008,10,07,02,43,26.50
2008,10,07,02,44,11.20
2008,10,07,02,45,15.00
2008,10,07,02,46,21.30
2008,10,07,02,47,14.50
2008,10,07,02,48,18.70
2008,10,07,02,49,2.80
2008,10,07,02,50,11.60
2008,10,07,02,51,12.00
2008,10,07,02,52,7.90
2008,10,07,02,53,10.10
2008,10,07,02,54,7.80
2008,10,07,02,55,9.90
2008,10,07,02,56,11.00
2008,10,07,02,57,12.40
2008,10,07,02,58,13.60
2008,10,07,02,59,10.20
2008,10,07,03,00,17.60
2008,10,07,03,01,10.40
2008,10,07,03,02,14.90
2008,10,07,03,03,14.10
2008,10,07,03,04,9.20
2008,10,07,03,05,5.40
2008,10,07,03,06,12.30
2008,10,07,03,07,12.80
2008,10,07,03,08,21.10
2008,10,07,03,09,5.50
2008,10,07,03,10,12.40
2008,10,07,03,11,24.20
2008,10,07,03,12,12.50
2008,10,07,03,13,9.40
2008,10,07,03,14,11.30
2008,10,07,03,15,9.00
2008,10,07,03,16,14.80
2008,10,07,03,17,11.80
2008,10,07,03,18,8.70
2008,10,07,03,19,28.70
2008,10,07,03,20,18.10
2008,10,07,03,21,20.10
2008,10,07,03,22,13.60
2008,10,07,03,23,12.50
2008,10,07,03,24,20.20
2008,10,07,03,25,27.80
2008,10,07,03,26,17.60
2008,10,07,03,27,15.70
2008,10,07,03,28,11.00
2008,10,07,03,29,13.60
2008,10,07,03,30,11.50
2008,10,07,03,31,16.70
2008,10,07,03,32,21.60
2008,10,07,03,33,9.70
2008,10,07,03,34,11.70
2008,10,07,03,35,19.90
2008,10,07,03,36,9.20
2008,10,07,03,37,9.30
2008,10,07,03,38,3.10
2008,10,07,03,39,7.20
2008,10,07,03,40,10.30
2008,10,07,03,41,7.10
2008,10,07,03,42,7.30
2008,10,07,03,43,9.20
2008,10,07,03,44,5.70
2008,10,07,03,45,4.70
2008,10,07,03,46,4.20
2008,10,07,03,47,5.60
2008,10,07,03,48,5.20
2008,10,07,03,49,6.80
2008,10,07,03,50,7.40
2008,10,07,03,51,13.40
2008,10,07,03,52,13.80
2008,10,07,03,53,8.70
2008,10,07,03,54,6.30
2008,10,07,03,55,7.60
2008,10,07,03,56,5.90
2008,10,07,03,57,6.00
2008,10,07,03,58,13.00
2008,10,07,03,59,14.60
2008,10,07,04,00,4.00
2008,10,07,04,01,3.10
2008,10,07,04,02,3.00
2008,10,07,04,03,2.10
2008,10,07,04,04,9.30
2008,10,07,04,05,14.50
2008,10,07,04,06,9.20
2008,10,07,04,07,0.00
2008,10,07,04,08,1.50
2008,10,07,04,09,5.50
2008,10,07,04,10,6.00
2008,10,07,04,11,5.10
2008,10,07,04,12,4.00
2008,10,07,04,13,3.60
2008,10,07,04,14,6.50
2008,10,07,04,15,5.60
2008,10,07,04,16,5.90
2008,10,07,04,17,1.60
2008,10,07,04,18,0.00
2008,10,07,04,19,1.70
2008,10,07,04,20,9.10
2008,10,07,04,21,9.30
2008,10,07,04,22,4.70
2008,10,07,04,23,8.70
2008,10,07,04,24,7.40
2008,10,07,04,25,10.30
2008,10,07,04,26,6.10
2008,10,07,04,27,5.80
2008,10,07,04,28,6.50
2008,10,07,04,29,5.50
2008,10,07,04,30,6.20
2008,10,07,04,31,6.00
2008,10,07,04,32,6.90
2008,10,07,04,33,13.50
2008,10,07,04,34,13.60
2008,10,07,04,35,9.00
2008,10,07,04,36,4.30
2008,10,07,04,37,3.70
2008,10,07,04,38,13.20
2008,10,07,04,39,7.60
2008,10,07,04,40,7.50
2008,10,07,04,41,1.00
2008,10,07,04,42,1.40
2008,10,07,04,43,3.60
2008,10,07,04,44,0.10
2008,10,07,04,45,1.10
2008,10,07,04,46,2.80
2008,10,07,04,47,1.00
2008,10,07,04,48,4.80
2008,10,07,04,49,4.50
2008,10,07,04,50,5.20
2008,10,07,04,51,1.20
2008,10,07,04,52,4.00
2008,10,07,04,53,1.00
2008,10,07,04,54,3.50
2008,10,07,04,55,4.80
2008,10,07,04,56,3.20
2008,10,07,04,57,3.60
2008,10,07,04,58,4.10
2008,10,07,04,59,3.20
2008,10,07,05,00,5.50
2008,10,07,05,01,5.30
2008,10,07,05,02,2.70
2008,10,07,05,03,5.20
2008,10,07,05,04,6.30
2008,10,07,05,05,8.30
2008,10,07,05,06,6.90
2008,10,07,05,07,13.80
2008,10,07,05,08,17.50
2008,10,07,05,09,13.00
2008,10,07,05,10,12.60
2008,10,07,05,11,10.00
2008,10,07,05,12,5.40
2008,10,07,05,13,6.40
2008,10,07,05,14,6.30
2008,10,07,05,15,30.20
2008,10,07,05,16,15.80
2008,10,07,05,17,14.90
2008,10,07,05,18,8.40
2008,10,07,05,19,12.60
2008,10,07,05,20,13.00
2008,10,07,05,21,14.60
2008,10,07,05,22,15.40
2008,10,07,05,23,9.80
2008,10,07,05,24,8.50
2008,10,07,05,25,7.60
2008,10,07,05,26,7.50
2008,10,07,05,27,9.40
2008,10,07,05,28,4.30
2008,10,07,05,29,5.60
2008,10,07,05,30,5.50
2008,10,07,05,31,6.80
2008,10,07,05,32,8.30
2008,10,07,05,33,4.10
2008,10,07,05,34,4.60
2008,10,07,05,35,1.50
2008,10,07,05,36,1.10
2008,10,07,05,37,0.20
2008,10,07,05,38,2.40
2008,10,07,05,39,5.30
2008,10,07,05,40,2.00
2008,10,07,05,41,1.40
2008,10,07,05,42,0.20
2008,10,07,05,43,0.00
2008,10,07,05,44,0.30
2008,10,07,05,45,0.00
2008,10,07,05,46,0.00
2008,10,07,05,47,0.00
2008,10,07,05,48,0.00
2008,10,07,05,49,0.10
2008,10,07,05,50,1.20
2008,10,07,05,51,2.00
2008,10,07,05,52,0.20
2008,10,07,05,53,0.00
2008,10,07,05,54,2.50
2008,10,07,05,55,6.60
2008,10,07,05,56,3.50
2008,10,07,05,57,2.00
2008,10,07,05,58,1.90
2008,10,07,05,59,2.20
2008,10,07,06,00,2.70
2008,10,07,06,01,5.10
2008,10,07,06,02,3.90
2008,10,07,06,03,4.10
2008,10,07,06,04,5.90
2008,10,07,06,05,6.40
2008,10,07,06,06,6.50
2008,10,07,06,07,5.60
2008,10,07,06,08,4.80
2008,10,07,06,09,4.10
2008,10,07,06,10,3.90
2008,10,07,06,11,6.70
2008,10,07,06,12,5.60
2008,10,07,06,13,6.70
2008,10,07,06,14,7.00
2008,10,07,06,15,9.00
2008,10,07,06,16,1.90
2008,10,07,06,17,3.00
2008,10,07,06,18,5.80
2008,10,07,06,19,6.50
2008,10,07,06,20,7.10
2008,10,07,06,21,7.10
2008,10,07,06,22,7.90
2008,10,07,06,23,7.60
2008,10,07,06,24,10.10
2008,10,07,06,25,5.10
2008,10,07,06,26,7.60
2008,10,07,06,27,6.70
2008,10,07,06,28,9.30
2008,10,07,06,29,11.30
2008,10,07,06,30,8.50
2008,10,07,06,31,6.90
2008,10,07,06,32,8.20
2008,10,07,06,33,9.30
2008,10,07,06,34,12.20
2008,10,07,06,35,17.40
2008,10,07,06,36,20.80
2008,10,07,06,37,13.30
2008,10,07,06,38,18.60
2008,10,07,06,39,10.30
2008,10,07,06,40,11.20
2008,10,07,06,41,14.60
2008,10,07,06,42,18.90
2008,10,07,06,43,14.90
2008,10,07,06,44,17.50
2008,10,07,06,45,21.60
2008,10,07,06,46,21.50
2008,10,07,06,47,15.40
2008,10,07,06,48,15.80
2008,10,07,06,49,17.30
2008,10,07,06,50,25.80
2008,10,07,06,51,15.80
2008,10,07,06,52,19.10
2008,10,07,06,53,21.90
2008,10,07,06,54,19.20
2008,10,07,06,55,19.10
2008,10,07,06,56,14.50
2008,10,07,06,57,14.10
2008,10,07,06,58,12.50
2008,10,07,06,59,15.20
2008,10,07,07,00,11.10
2008,10,07,07,01,11.00
2008,10,07,07,02,10.30
2008,10,07,07,03,13.40
2008,10,07,07,04,11.10
2008,10,07,07,05,11.70
2008,10,07,07,06,7.80
2008,10,07,07,07,8.10
2008,10,07,07,08,10.50
2008,10,07,07,09,3.40
2008,10,07,07,10,8.10
2008,10,07,07,11,8.10
2008,10,07,07,12,11.80
2008,10,07,07,13,15.10
2008,10,07,07,14,8.70
2008,10,07,07,15,8.50
2008,10,07,07,16,7.80
2008,10,07,07,17,9.20
2008,10,07,07,18,10.00
2008,10,07,07,19,11.70
2008,10,07,07,20,9.90
2008,10,07,07,21,22.30
2008,10,07,07,22,15.20
2008,10,07,07,23,17.50
2008,10,07,07,24,22.40
2008,10,07,07,25,18.10
2008,10,07,07,26,19.20
2008,10,07,07,27,16.90
2008,10,07,07,28,13.00
2008,10,07,07,29,16.50
2008,10,07,07,30,15.40
2008,10,07,07,31,14.90
2008,10,07,07,32,11.20
2008,10,07,07,33,20.70
2008,10,07,07,34,13.80
2008,10,07,07,35,10.70
2008,10,07,07,36,16.90
2008,10,07,07,37,11.00
2008,10,07,07,38,9.50
2008,10,07,07,39,5.80
2008,10,07,07,40,2.80
2008,10,07,07,41,6.70
2008,10,07,07,42,1.60
2008,10,07,07,43,1.40
2008,10,07,07,44,1.00
2008,10,07,07,45,4.60
2008,10,07,07,46,2.00
2008,10,07,07,47,1.20
2008,10,07,07,48,4.70
2008,10,07,07,49,5.00
2008,10,07,07,50,5.60
2008,10,07,07,51,6.40
2008,10,07,07,52,6.40
2008,10,07,07,53,13.30
2008,10,07,07,54,12.60
2008,10,07,07,55,5.50
2008,10,07,07,56,4.00
2008,10,07,07,57,2.80
2008,10,07,07,58,4.30
2008,10,07,07,59,5.80
2008,10,07,08,00,7.20
2008,10,07,08,01,7.80
2008,10,07,08,02,4.90
2008,10,07,08,03,3.40
2008,10,07,08,04,2.60
2008,10,07,08,05,3.90
2008,10,07,08,06,5.80
2008,10,07,08,07,3.40
2008,10,07,08,08,7.30
2008,10,07,08,09,7.20
2008,10,07,08,10,7.60
2008,10,07,08,11,11.10
2008,10,07,08,12,9.70
2008,10,07,08,13,6.80
2008,10,07,08,14,11.10
2008,10,07,08,15,6.10
2008,10,07,08,16,7.60
2008,10,07,08,17,10.80
2008,10,07,08,18,11.00
2008,10,07,08,19,12.70
2008,10,07,08,20,12.80
2008,10,07,08,21,24.60
2008,10,07,08,22,12.90
2008,10,07,08,23,9.00
2008,10,07,08,24,11.70
2008,10,07,08,25,13.20
2008,10,07,08,26,15.20
2008,10,07,08,27,21.80
2008,10,07,08,28,7.30
2008,10,07,08,29,13.60
2008,10,07,08,30,8.30
2008,10,07,08,31,9.10
2008,10,07,08,32,15.40
2008,10,07,08,33,15.20
2008,10,07,08,34,11.10
2008,10,07,08,35,16.40
2008,10,07,08,36,13.60
2008,10,07,08,37,16.50
2008,10,07,08,38,11.80
2008,10,07,08,39,16.50
2008,10,07,08,40,15.40
2008,10,07,08,41,20.90
2008,10,07,08,42,16.70
2008,10,07,08,43,15.90
2008,10,07,08,44,11.40
2008,10,07,08,45,14.90
2008,10,07,08,46,12.50
2008,10,07,08,47,10.80
2008,10,07,08,48,19.70
2008,10,07,08,49,16.80
2008,10,07,08,50,22.20
2008,10,07,08,51,11.30
2008,10,07,08,52,15.90
2008,10,07,08,53,15.80
2008,10,07,08,54,8.60
2008,10,07,08,55,9.40
2008,10,07,08,56,13.50
2008,10,07,08,57,10.20
2008,10,07,08,58,12.30
2008,10,07,08,59,18.20
2008,10,07,09,00,14.90
2008,10,07,09,01,9.40
2008,10,07,09,02,13.00
2008,10,07,09,03,17.50
2008,10,07,09,04,15.30
2008,10,07,09,05,18.60
2008,10,07,09,06,11.60
2008,10,07,09,07,7.00
2008,10,07,09,08,13.70
2008,10,07,09,09,15.10
2008,10,07,09,10,10.40
2008,10,07,09,11,7.70
2008,10,07,09,12,12.40
2008,10,07,09,13,6.00
2008,10,07,09,14,10.50
2008,10,07,09,15,12.90
2008,10,07,09,16,13.40
2008,10,07,09,17,15.20
2008,10,07,09,18,11.30
2008,10,07,09,19,12.50
2008,10,07,09,20,6.80
2008,10,07,09,21,5.80
2008,10,07,09,22,7.70
2008,10,07,09,23,10.30
2008,10,07,09,24,11.90
2008,10,07,09,25,9.70
2008,10,07,09,26,5.90
2008,10,07,09,27,13.10
2008,10,07,09,28,6.70
2008,10,07,09,29,5.10
2008,10,07,09,30,5.80
2008,10,07,09,31,8.90
2008,10,07,09,32,14.20
2008,10,07,09,33,14.50
2008,10,07,09,34,15.30
2008,10,07,09,35,5.50
2008,10,07,09,36,5.10
2008,10,07,09,37,10.10
2008,10,07,09,38,12.70
2008,10,07,09,39,13.60
2008,10,07,09,40,14.10
2008,10,07,09,41,8.60
2008,10,07,09,42,8.00
2008,10,07,09,43,3.00
2008,10,07,09,44,4.70
2008,10,07,09,45,3.00
2008,10,07,09,46,4.10
2008,10,07,09,47,14.50
2008,10,07,09,48,16.50
2008,10,07,09,49,10.30
2008,10,07,09,50,9.30
2008,10,07,09,51,7.50
2008,10,07,09,52,8.80
2008,10,07,09,53,10.10
2008,10,07,09,54,13.30
2008,10,07,09,55,6.70
2008,10,07,09,56,11.70
2008,10,07,09,57,9.50
2008,10,07,09,58,17.50
2008,10,07,09,59,16.50
2008,10,07,10,00,14.20
2008,10,07,10,01,18.50
2008,10,07,10,02,12.80
2008,10,07,10,03,13.80
2008,10,07,10,04,17.40
2008,10,07,10,05,13.10
2008,10,07,10,06,10.20
2008,10,07,10,07,15.50
2008,10,07,10,08,14.20
2008,10,07,10,09,17.10
2008,10,07,10,10,13.90
2008,10,07,10,11,6.40
2008,10,07,10,12,8.60
2008,10,07,10,13,7.80
2008,10,07,10,14,6.20
2008,10,07,10,15,4.40
2008,10,07,10,16,5.90
2008,10,07,10,17,9.80
2008,10,07,10,18,6.40
2008,10,07,10,19,8.80
2008,10,07,10,20,10.00
2008,10,07,10,21,3.20
2008,10,07,10,22,6.80
2008,10,07,10,23,12.10
2008,10,07,10,24,10.20
2008,10,07,10,25,3.70
2008,10,07,10,26,7.10
2008,10,07,10,27,5.30
2008,10,07,10,28,8.90
2008,10,07,10,29,2.60
2008,10,07,10,30,3.60
2008,10,07,10,31,3.70
2008,10,07,10,32,1.30
2008,10,07,10,33,8.00
2008,10,07,10,34,6.40
2008,10,07,10,35,7.10
2008,10,07,10,36,7.90
2008,10,07,10,37,8.00
2008,10,07,10,38,9.40
2008,10,07,10,39,5.60
2008,10,07,10,40,6.40
2008,10,07,10,41,3.10
2008,10,07,10,42,3.10
2008,10,07,10,43,5.00
2008,10,07,10,44,5.20
2008,10,07,10,45,5.70
2008,10,07,10,46,5.30
2008,10,07,10,47,6.60
2008,10,07,10,48,6.60
2008,10,07,10,49,10.90
2008,10,07,10,50,7.40
2008,10,07,10,51,11.00
2008,10,07,10,52,12.50
2008,10,07,10,53,8.80
2008,10,07,10,54,10.60
2008,10,07,10,55,10.60
2008,10,07,10,56,11.50
2008,10,07,10,57,5.20
2008,10,07,10,58,4.70
2008,10,07,10,59,9.90
2008,10,07,11,00,3.50
2008,10,07,11,01,8.30
2008,10,07,11,02,8.60
2008,10,07,11,03,8.90
2008,10,07,11,04,9.80
2008,10,07,11,05,12.30
2008,10,07,11,06,7.00
2008,10,07,11,07,6.40
2008,10,07,11,08,10.20
2008,10,07,11,09,5.10
2008,10,07,11,10,10.80
2008,10,07,11,11,10.60
2008,10,07,11,12,14.40
2008,10,07,11,13,14.10
2008,10,07,11,14,8.10
2008,10,07,11,15,6.70
2008,10,07,11,16,9.30
2008,10,07,11,17,7.10
2008,10,07,11,18,10.40
2008,10,07,11,19,8.10
2008,10,07,11,20,12.00
2008,10,07,11,21,7.90
2008,10,07,11,22,9.00
2008,10,07,11,23,4.30
2008,10,07,11,24,11.20
2008,10,07,11,25,12.70
2008,10,07,11,26,6.90
2008,10,07,11,27,9.10
2008,10,07,11,28,11.50
2008,10,07,11,29,7.10
2008,10,07,11,30,10.00
2008,10,07,11,31,10.80
2008,10,07,11,32,11.80
2008,10,07,11,33,18.80
2008,10,07,11,34,10.70
2008,10,07,11,35,5.50
2008,10,07,11,36,7.50
2008,10,07,11,37,13.00
2008,10,07,11,38,11.30
2008,10,07,11,39,15.00
2008,10,07,11,40,16.20
2008,10,07,11,41,12.90
2008,10,07,11,42,15.00
2008,10,07,11,43,7.80
2008,10,07,11,44,9.30
2008,10,07,11,45,10.30
2008,10,07,11,46,8.20
2008,10,07,11,47,14.50
2008,10,07,11,48,14.50
2008,10,07,11,49,10.50
2008,10,07,11,50,12.70
2008,10,07,11,51,11.90
2008,10,07,11,52,10.60
2008,10,07,11,53,14.50
2008,10,07,11,54,9.20
2008,10,07,11,55,16.80
2008,10,07,11,56,9.50
2008,10,07,11,57,13.30
2008,10,07,11,58,13.50
2008,10,07,11,59,19.10
2008,10,07,12,00,9.50
2008,10,07,12,01,8.40
2008,10,07,12,02,13.90
2008,10,07,12,03,9.90
2008,10,07,12,04,8.80
2008,10,07,12,05,11.30
2008,10,07,12,06,16.70
2008,10,07,12,07,15.20
2008,10,07,12,08,15.60
2008,10,07,12,09,4.10
2008,10,07,12,10,15.80
2008,10,07,12,11,10.30
2008,10,07,12,12,15.60
2008,10,07,12,13,16.70
2008,10,07,12,14,17.70
2008,10,07,12,15,15.50
2008,10,07,12,16,14.60
2008,10,07,12,17,12.40
2008,10,07,12,18,14.50
2008,10,07,12,19,21.10
2008,10,07,12,20,13.00
2008,10,07,12,21,16.50
2008,10,07,12,22,13.40
2008,10,07,12,23,18.50
2008,10,07,12,24,12.00
2008,10,07,12,25,13.90
2008,10,07,12,26,6.40
2008,10,07,12,27,12.90
2008,10,07,12,28,15.40
2008,10,07,12,29,10.10
2008,10,07,12,30,5.70
2008,10,07,12,31,16.60
2008,10,07,12,32,13.10
2008,10,07,12,33,20.00
2008,10,07,12,34,9.70
2008,10,07,12,35,6.00
2008,10,07,12,36,10.20
2008,10,07,12,37,16.30
2008,10,07,12,38,15.30
2008,10,07,12,39,13.60
2008,10,07,12,40,9.70
2008,10,07,12,41,8.80
2008,10,07,12,42,5.80
2008,10,07,12,43,11.30
2008,10,07,12,44,9.10
2008,10,07,12,45,14.20
2008,10,07,12,46,19.00
2008,10,07,12,47,16.00
2008,10,07,12,48,10.70
2008,10,07,12,49,14.00
2008,10,07,12,50,12.90
2008,10,07,12,51,17.90
2008,10,07,12,52,16.70
2008,10,07,12,53,15.90
2008,10,07,12,54,9.80
2008,10,07,12,55,17.50
2008,10,07,12,56,13.70
2008,10,07,12,57,16.50
2008,10,07,12,58,12.00
2008,10,07,12,59,13.60
2008,10,07,13,00,13.20
2008,10,07,13,01,14.20
2008,10,07,13,02,8.60
2008,10,07,13,03,8.10
2008,10,07,13,04,17.80
2008,10,07,13,05,10.80
2008,10,07,13,06,10.70
2008,10,07,13,07,8.30
2008,10,07,13,08,10.40
2008,10,07,13,09,11.10
2008,10,07,13,10,8.80
2008,10,07,13,11,18.20
2008,10,07,13,12,16.40
2008,10,07,13,13,6.40
2008,10,07,13,14,10.80
2008,10,07,13,15,14.00
2008,10,07,13,16,7.40
2008,10,07,13,17,8.70
2008,10,07,13,18,14.10
2008,10,07,13,19,10.40
2008,10,07,13,20,9.60
2008,10,07,13,21,8.60
2008,10,07,13,22,4.70
2008,10,07,13,23,5.40
2008,10,07,13,24,4.60
2008,10,07,13,25,3.90
2008,10,07,13,26,8.90
2008,10,07,13,27,8.30
2008,10,07,13,28,11.90
2008,10,07,13,29,9.30
2008,10,07,13,30,10.80
2008,10,07,13,31,17.90
2008,10,07,13,32,8.00
2008,10,07,13,33,9.50
2008,10,07,13,34,15.80
2008,10,07,13,35,5.10
2008,10,07,13,36,3.70
2008,10,07,13,37,8.40
2008,10,07,13,38,6.40
2008,10,07,13,39,16.20
2008,10,07,13,40,16.80
2008,10,07,13,41,14.20
2008,10,07,13,42,13.90
2008,10,07,13,43,14.50
2008,10,07,13,44,20.80
2008,10,07,13,45,17.60
2008,10,07,13,46,17.90
2008,10,07,13,47,20.30
2008,10,07,13,48,22.90
2008,10,07,13,49,20.50
2008,10,07,13,50,15.80
2008,10,07,13,51,13.20
2008,10,07,13,52,11.70
2008,10,07,13,53,8.50
2008,10,07,13,54,7.80
2008,10,07,13,55,11.70
2008,10,07,13,56,14.60
2008,10,07,13,57,8.50
2008,10,07,13,58,12.60
2008,10,07,13,59,16.50
2008,10,07,14,00,12.80
2008,10,07,14,01,10.30
2008,10,07,14,02,11.60
2008,10,07,14,03,2.60
2008,10,07,14,04,3.10
2008,10,07,14,05,7.70
2008,10,07,14,06,8.60
2008,10,07,14,07,6.40
2008,10,07,14,08,5.80
2008,10,07,14,09,4.20
2008,10,07,14,10,2.90
2008,10,07,14,11,3.80
2008,10,07,14,12,3.80
2008,10,07,14,13,3.70
2008,10,07,14,14,5.80
2008,10,07,14,15,3.90
2008,10,07,14,16,5.10
2008,10,07,14,17,4.20
2008,10,07,14,18,8.60
2008,10,07,14,19,2.50
2008,10,07,14,20,4.90
2008,10,07,14,21,7.10
2008,10,07,14,22,11.30
2008,10,07,14,23,13.30
2008,10,07,14,24,9.30
2008,10,07,14,25,6.70
2008,10,07,14,26,8.50
2008,10,07,14,27,10.90
2008,10,07,14,28,7.20
2008,10,07,14,29,6.00
2008,10,07,14,30,11.30
2008,10,07,14,31,16.20
2008,10,07,14,32,10.50
2008,10,07,14,33,7.30
2008,10,07,14,34,9.20
2008,10,07,14,35,7.20
2008,10,07,14,36,6.30
2008,10,07,14,37,4.80
2008,10,07,14,38,4.80
2008,10,07,14,39,9.70
2008,10,07,14,40,5.70
2008,10,07,14,41,5.10
2008,10,07,14,42,12.10
2008,10,07,14,43,11.30
2008,10,07,14,44,12.60
2008,10,07,14,45,14.10
2008,10,07,14,46,15.40
2008,10,07,14,47,12.00
2008,10,07,14,48,7.80
2008,10,07,14,49,7.50
2008,10,07,14,50,6.90
2008,10,07,14,51,8.50
2008,10,07,14,52,9.60
2008,10,07,14,53,7.30
2008,10,07,14,54,12.70
2008,10,07,14,55,12.10
2008,10,07,14,56,12.80
2008,10,07,14,57,6.40
2008,10,07,14,58,9.70
2008,10,07,14,59,15.90
2008,10,07,15,00,9.80
2008,10,07,15,01,6.20
2008,10,07,15,02,12.90
2008,10,07,15,03,12.00
2008,10,07,15,04,6.50
2008,10,07,15,05,2.50
2008,10,07,15,06,4.20
2008,10,07,15,07,3.00
2008,10,07,15,08,6.20
2008,10,07,15,09,13.80
2008,10,07,15,10,5.20
2008,10,07,15,11,10.00
2008,10,07,15,12,13.50
2008,10,07,15,13,8.20
2008,10,07,15,14,8.10
2008,10,07,15,15,6.30
2008,10,07,15,16,5.20
2008,10,07,15,17,2.50
2008,10,07,15,18,12.70
2008,10,07,15,19,5.70
2008,10,07,15,20,11.30
2008,10,07,15,21,4.20
2008,10,07,15,22,8.30
2008,10,07,15,23,11.70
2008,10,07,15,24,6.00
2008,10,07,15,25,6.50
2008,10,07,15,26,4.90
2008,10,07,15,27,4.40
2008,10,07,15,28,5.80
2008,10,07,15,29,3.00
2008,10,07,15,30,4.30
2008,10,07,15,31,4.30
2008,10,07,15,32,13.30
2008,10,07,15,33,10.10
2008,10,07,15,34,11.50
2008,10,07,15,35,6.80
2008,10,07,15,36,7.30
2008,10,07,15,37,5.40
2008,10,07,15,38,4.30
2008,10,07,15,39,5.10
2008,10,07,15,40,9.30
2008,10,07,15,41,5.20
2008,10,07,15,42,8.70
2008,10,07,15,43,4.20
2008,10,07,15,44,5.40
2008,10,07,15,45,0.90
2008,10,07,15,46,3.80
2008,10,07,15,47,2.10
2008,10,07,15,48,2.20
2008,10,07,15,49,2.80
2008,10,07,15,50,1.30
2008,10,07,15,51,2.40
2008,10,07,15,52,0.50
2008,10,07,15,53,2.30
2008,10,07,15,54,0.60
2008,10,07,15,55,2.00
2008,10,07,15,56,4.40
2008,10,07,15,57,4.30
2008,10,07,15,58,5.30
2008,10,07,15,59,4.80
2008,10,07,16,00,4.00
2008,10,07,16,01,3.20
2008,10,07,16,02,2.80
2008,10,07,16,03,2.10
2008,10,07,16,04,6.50
2008,10,07,16,05,7.60
2008,10,07,16,06,9.30
2008,10,07,16,07,6.80
2008,10,07,16,08,7.80
2008,10,07,16,09,6.00
2008,10,07,16,10,2.80
2008,10,07,16,11,5.10
2008,10,07,16,12,4.40
2008,10,07,16,13,1.30
2008,10,07,16,14,2.70
2008,10,07,16,15,4.40
2008,10,07,16,16,6.50
2008,10,07,16,17,3.00
2008,10,07,16,18,3.10
2008,10,07,16,19,10.80
2008,10,07,16,20,11.40
2008,10,07,16,21,6.90
2008,10,07,16,22,10.00
2008,10,07,16,23,17.00
2008,10,07,16,24,10.80
2008,10,07,16,25,14.60
2008,10,07,16,26,10.30
2008,10,07,16,27,14.60
2008,10,07,16,28,15.50
2008,10,07,16,29,16.20
2008,10,07,16,30,17.20
2008,10,07,16,31,10.30
2008,10,07,16,32,12.60
2008,10,07,16,33,11.80
2008,10,07,16,34,9.60
2008,10,07,16,35,7.60
2008,10,07,16,36,8.10
2008,10,07,16,37,10.30
2008,10,07,16,38,9.10
2008,10,07,16,39,4.00
2008,10,07,16,40,10.20
2008,10,07,16,41,10.10
2008,10,07,16,42,4.80
2008,10,07,16,43,11.40
2008,10,07,16,44,9.50
2008,10,07,16,45,8.70
2008,10,07,16,46,9.00
2008,10,07,16,47,5.80
2008,10,07,16,48,5.40
2008,10,07,16,49,6.00
2008,10,07,16,50,6.00
2008,10,07,16,51,4.40
2008,10,07,16,52,7.00
2008,10,07,16,53,4.10
2008,10,07,16,54,4.20
2008,10,07,16,55,11.10
2008,10,07,16,56,9.20
2008,10,07,16,57,12.30
2008,10,07,16,58,6.40
2008,10,07,16,59,11.80
2008,10,07,17,00,10.90
2008,10,07,17,01,3.30
2008,10,07,17,02,8.50
2008,10,07,17,03,7.80
2008,10,07,17,04,6.30
2008,10,07,17,05,8.70
2008,10,07,17,06,8.60
2008,10,07,17,07,8.00
2008,10,07,17,08,7.10
2008,10,07,17,09,7.20
2008,10,07,17,10,8.10
2008,10,07,17,11,8.90
2008,10,07,17,12,8.90
2008,10,07,17,13,8.50
2008,10,07,17,14,10.10
2008,10,07,17,15,8.40
2008,10,07,17,16,10.30
2008,10,07,17,17,7.10
2008,10,07,17,18,4.30
2008,10,07,17,19,6.50
2008,10,07,17,20,4.70
2008,10,07,17,21,7.30
2008,10,07,17,22,3.50
2008,10,07,17,23,5.30
2008,10,07,17,24,7.50
2008,10,07,17,25,12.60
2008,10,07,17,26,11.00
2008,10,07,17,27,10.90
2008,10,07,17,28,8.60
2008,10,07,17,29,8.10
2008,10,07,17,30,5.60
2008,10,07,17,31,7.80
2008,10,07,17,32,7.20
2008,10,07,17,33,3.70
2008,10,07,17,34,11.70
2008,10,07,17,35,8.40
2008,10,07,17,36,6.60
2008,10,07,17,37,14.30
2008,10,07,17,38,9.30
2008,10,07,17,39,8.50
2008,10,07,17,40,12.80
2008,10,07,17,41,7.80
2008,10,07,17,42,6.20
2008,10,07,17,43,6.00
2008,10,07,17,44,11.70